Location: USNO
(38.9242°N, 77.0663°W)
Time: 22:07:49
(UTC-04:00)

OTV 5 (USA 277) - Pass Details

Date: 15 October 2017
Orbit: 404 x 417 km, 43.0° (Epoch: 07 September)

Event Time Altitude Azimuth Distance (km) Brightness Sun altitude
Rises 20:19:06 0° 285° (WNW) 2,355 ? -22.1°
Reaches altitude 10° 20:21:18 10° 293° (WNW) 1,491 ? -22.5°
Enters shadow 20:23:45 34° 330° (NNW) 700 ? -23.0°
